Location: Oberwangen
(47.4286°N, 8.9679°E)
Time: 15:20:34
(UTC+00:00)

Thor Agena Rocket - Pass Details

Date: 20 June 2021
Orbit: 759 x 808 km, 99.0° (Epoch: 02 August)

Event Time Altitude Azimuth Distance (km) Brightness Sun altitude
Rises 23:00:22 0° 19° (NNE) 3,320 8.0 -18.9°
Reaches altitude 10° 23:02:48 10° 24° (NNE) 2,379 6.9 -18.9°
Maximum altitude 23:07:54 50° 100° (E) 1,002 4.0 -19.0°
Enters shadow 23:09:48 34° 154° (SSE) 1,279 4.1 -19.0°
